Overview Statistics Trail Chart Weather Telemetry Raw packets
 

This is the latest recevied weather packets stored in our database for station/object LU3MCV-13. If no packets are shown the sender has not sent any weather packets the latest 10 day(s).

<< 20 21 22 23 24 25 26 >>
Time Temp. Humidity Pressure Rain* Wind** Luminosity Snow
1777560105 18.89° C 22% 928.3 hPa - - - -
1777559205 18.89° C 23% 928.5 hPa - - - -
1777558305 18.89° C 23% 928.6 hPa - - - -
1777557405 17.78° C 23% 928.7 hPa - - - -
1777556506 17.78° C 24% 928.8 hPa - - - -
1777555606 17.22° C 24% 929 hPa - - - -
1777554705 17.22° C 24% 929.1 hPa - - - -
1777553805 16.11° C 24% 929.1 hPa - - - -
1777552905 15° C 24% 929.2 hPa - - - -
1777552005 15° C 24% 929.1 hPa - - - -
1777551105 15° C 24% 929.1 hPa - - - -
1777550205 13.89° C 26% 929.1 hPa - - - -
1777549305 12.78° C 26% 928.9 hPa - - - -
1777548405 12.78° C 26% 928.8 hPa - - - -
1777547505 12.78° C 25% 928.8 hPa - - - -
1777546605 12.78° C 25% 928.9 hPa - - - -
1777545705 13.89° C 25% 928.8 hPa - - - -
1777544805 15° C 23% 928.8 hPa - - - -
1777543904 15° C 23% 928.7 hPa - - - -
1777543005 15° C 22% 928.6 hPa - - - -
1777542105 15° C 22% 928.5 hPa - - - -
1777541204 15° C 21% 928.6 hPa - - - -
1777540305 15° C 21% 928.7 hPa - - - -
1777539405 15° C 21% 928.7 hPa - - - -
1777538505 15° C 20% 928.7 hPa - - - -

* Rain since midnight (hover to see other rain measurements)
** Current wind speed in m/s (hover to see current wind gust speed)